Location: ???????
(55.4362°N, 38.1183°E)
Time: 01:45:26
(UTC+00:00)

Cosmos 1932 - Pass Details

Date: 24 October 2021
Orbit: 943 x 987 km, 65.0° (Epoch: 01 December)

Event Time Altitude Azimuth Distance (km) Brightness Sun altitude
Rises 17:39:53 0° 310° (NW) 3,621 8.6 -30.4°
Reaches altitude 10° 17:43:04 10° 295° (WNW) 2,675 7.7 -30.8°
Maximum altitude 17:47:27 20° 250° (WSW) 2,026 6.5 -31.3°
Enters shadow 17:51:17 12° 209° (SSW) 2,540 6.7 -31.8°
